,,Stat6,,Stat2,,Stat8,,Stat9,,Stat10,,Wind1,,Wind1,
time,status,PA1M_AVG,status,PR1M_SUM,status,RH1M_AVG,status,SR1M_AVG,status,TA1M_AVG,status,W1dAve1m,status,W1sAve1m,
2004-03-16, 00:00:00,VALID,919.283,VALID,0,VALID,99.9074,VALID,-0.0169808,VALID,19.7887,VALID,5,VALID,0.720703,
2004-03-16, 00:01:00,VALID,919.287,VALID,0,VALID,99.8451,VALID,0,VALID,19.7725,VALID,5,VALID,0.704861,
2004-03-16, 00:02:00,VALID,919.285,VALID,0,VALID,99.7243,VALID,0,VALID,19.7534,VALID,5,VALID,0.376999,
2004-03-16, 00:03:00,VALID,919.272,VALID,0,VALID,99.6188,VALID,0,VALID,19.7045,VALID,5,VALID,0.472266,
2004-03-16, 00:04:00,VALID,919.24,VALID,0,VALID,99.5755,VALID,0,VALID,19.6883,VALID,16,VALID,0.507994,
2004-03-16, 00:05:00,VALID,919.245,VALID,0,VALID,99.6061,VALID,0,VALID,19.7107,VALID,17,VALID,0.308498,
2004-03-16, 00:06:00,VALID,919.249,VALID,0,VALID,99.456,VALID,0,VALID,19.7012,VALID,17,VALID,0.431445,
2004-03-16, 00:07:00,VALID,919.238,VALID,0,VALID,99.4217,VALID,0,VALID,19.7047,VALID,17,VALID,0.388626,
2004-03-16, 00:08:00,VALID,919.228,VALID,0,VALID,99.4001,VALID,0,VALID,19.6953,VALID,17,VALID,0.407138,
2004-03-16, 00:09:00,VALID,919.215,VALID,0,VALID,99.5476,VALID,0,VALID,19.7236,VALID,17,VALID,0.409884,
2004-03-16, 00:10:00,VALID,919.215,VALID,0,VALID,99.6073,VALID,0.0169808,VALID,19.7628,VALID,17,VALID,0.046131,
2004-03-16, 00:11:00,VALID,919.21,VALID,0,VALID,99.5056,VALID,-0.0169808,VALID,19.7564,VALID,17,VALID,0.192708,
2004-03-16, 00:12:00,VALID,919.197,VALID,0,VALID,99.3517,VALID,0,VALID,19.7308,VALID,17,VALID,0.296342,
2004-03-16, 00:13:00,VALID,919.19,VALID,0,VALID,99.3276,VALID,0,VALID,19.7015,VALID,17,VALID,0.0960582,
2004-03-16, 00:14:00,VALID,919.216,VALID,0,VALID,99.2271,VALID,-0.0169808,VALID,19.6821,VALID,301,VALID,0.650915,
2004-03-16, 00:15:00,VALID,919.219,VALID,0,VALID,99.1483,VALID,0,VALID,19.66,VALID,251,VALID,0.319568,
2004-03-16, 00:16:00,VALID,919.204,VALID,0,VALID,99.2347,VALID,0,VALID,19.6367,VALID,251,VALID,0,
2004-03-16, 00:17:00,VALID,919.2,VALID,0,VALID,99.3212,VALID,-0.0169808,VALID,19.6595,VALID,251,VALID,0.142671,
2004-03-16, 00:18:00,VALID,919.203,VALID,0,VALID,99.3734,VALID,0,VALID,19.6632,VALID,252,VALID,0.121652,
2004-03-16, 00:19:00,VALID,919.186,VALID,0,VALID,99.4318,VALID,0,VALID,19.6565,VALID,252,VALID,0,
2004-03-16, 00:20:00,VALID,919.179,VALID,0,VALID,99.4509,VALID,0,VALID,19.6503,VALID,252,VALID,0,
2004-03-16, 00:21:00,VALID,919.159,VALID,0,VALID,99.456,VALID,0,VALID,19.6272,VALID,252,VALID,0.0577762,
2004-03-16, 00:22:00,VALID,919.158,VALID,0,VALID,99.4827,VALID,0,VALID,19.6242,VALID,252,VALID,0.00647866,
2004-03-16, 00:23:00,VALID,919.138,VALID,0,VALID,99.5488,VALID,-0.0169808,VALID,19.6342,VALID,252,VALID,0,
2004-03-16, 00:24:00,VALID,919.106,VALID,0,VALID,99.5577,VALID,0.0169808,VALID,19.6108,VALID,252,VALID,0,
2004-03-16, 00:25:00,VALID,919.072,VALID,0,VALID,99.5285,VALID,0,VALID,19.6113,VALID,252,VALID,0,
2004-03-16, 00:26:00,VALID,919.051,VALID,0,VALID,99.6277,VALID,0,VALID,19.6083,VALID,252,VALID,0.0244141,
2004-03-16, 00:27:00,VALID,919.025,VALID,0,VALID,99.6607,VALID,0,VALID,19.618,VALID,252,VALID,0,
2004-03-16, 00:28:00,VALID,919.013,VALID,0,VALID,99.634,VALID,0.0169808,VALID,19.6145,VALID,252,VALID,0,
2004-03-16, 00:29:00,VALID,919.01,VALID,0,VALID,99.6811,VALID,0.0339617,VALID,19.6049,VALID,252,VALID,0,
2004-03-16, 00:30:00,VALID,918.998,VALID,0,VALID,99.6213,VALID,0,VALID,19.5986,VALID,252,VALID,0,
2004-03-16, 00:31:00,VALID,919.007,VALID,0,VALID,99.6175,VALID,-0.101885,VALID,19.587,VALID,252,VALID,0,
2004-03-16, 00:32:00,VALID,918.999,VALID,0,VALID,99.5908,VALID,-0.101885,VALID,19.5673,VALID,252,VALID,0,
2004-03-16, 00:33:00,VALID,918.981,VALID,0,VALID,99.3721,VALID,-0.101885,VALID,19.5261,VALID,252,VALID,0,
2004-03-16, 00:34:00,VALID,918.98,VALID,0,VALID,99.2983,VALID,-0.0849042,VALID,19.4643,VALID,252,VALID,0.106534,
2004-03-16, 00:35:00,VALID,918.964,VALID,0,VALID,99.1661,VALID,-0.101885,VALID,19.4091,VALID,252,VALID,0.246804,
2004-03-16, 00:36:00,VALID,918.963,VALID,0,VALID,99.2042,VALID,-0.0849042,VALID,19.3706,VALID,252,VALID,0.0435764,
2004-03-16, 00:37:00,VALID,918.977,VALID,0,VALID,99.2793,VALID,-0.101885,VALID,19.3512,VALID,251,VALID,0.152616,
2004-03-16, 00:38:00,VALID,918.959,VALID,0,VALID,99.3746,VALID,-0.101885,VALID,19.3289,VALID,250,VALID,0.229492,
2004-03-16, 00:39:00,VALID,918.948,VALID,0,VALID,99.6048,VALID,-0.0849042,VALID,19.3644,VALID,250,VALID,0.150746,
2004-03-16, 00:40:00,VALID,918.93,VALID,0,VALID,99.7256,VALID,-0.101885,VALID,19.393,VALID,250,VALID,0.0658482,
2004-03-16, 00:41:00,VALID,918.935,VALID,0,VALID,99.8985,VALID,-0.101885,VALID,19.4546,VALID,250,VALID,0,
2004-03-16, 00:42:00,VALID,918.928,VALID,0,VALID,99.9733,VALID,-0.118866,VALID,19.5003,VALID,249,VALID,0.056516,
2004-03-16, 00:43:00,VALID,918.917,VALID,0,VALID,100,VALID,-0.135847,VALID,19.5907,VALID,235,VALID,0.410156,
2004-03-16, 00:44:00,VALID,918.907,VALID,0,VALID,100,VALID,-0.101885,VALID,19.6746,VALID,195,VALID,0.546875,
2004-03-16, 00:45:00,VALID,918.895,VALID,0,VALID,100,VALID,-0.0849042,VALID,19.703,VALID,181,VALID,0.355903,
2004-03-16, 00:46:00,VALID,918.881,VALID,0,VALID,100,VALID,0,VALID,19.7601,VALID,188,VALID,0.433117,
2004-03-16, 00:47:00,VALID,918.869,VALID,0,VALID,100,VALID,0,VALID,19.7834,VALID,212,VALID,0.366044,
2004-03-16, 00:48:00,VALID,918.87,VALID,0,VALID,100,VALID,0,VALID,19.7929,VALID,231,VALID,0.87221,
2004-03-16, 00:49:00,VALID,918.877,VALID,0,VALID,100,VALID,-0.0339617,VALID,19.7733,VALID,234,VALID,1.03107,
2004-03-16, 00:50:00,VALID,918.869,VALID,0,VALID,100,VALID,0,VALID,19.7859,VALID,208,VALID,0.743253,
2004-03-16, 00:51:00,VALID,918.849,VALID,0,VALID,100,VALID,0,VALID,19.7921,VALID,227,VALID,0.640104,
2004-03-16, 00:52:00,VALID,918.827,VALID,0,VALID,100,VALID,0,VALID,19.815,VALID,243,VALID,0.723292,
2004-03-16, 00:53:00,VALID,918.821,VALID,0,VALID,100,VALID,0,VALID,19.8383,VALID,244,VALID,0.94931,
2004-03-16, 00:54:00,VALID,918.787,VALID,0,VALID,100,VALID,0,VALID,19.8734,VALID,247,VALID,0.787064,
2004-03-16, 00:55:00,VALID,918.758,VALID,0,VALID,100,VALID,-0.0169808,VALID,19.8801,VALID,222,VALID,0.591992,
2004-03-16, 00:56:00,VALID,918.735,VALID,0,VALID,99.999,VALID,0,VALID,19.8696,VALID,250,VALID,0.91061,
2004-03-16, 00:57:00,VALID,918.722,VALID,0,VALID,99.9112,VALID,-0.0169808,VALID,19.8637,VALID,247,VALID,1.20694,
2004-03-16, 00:58:00,VALID,918.715,VALID,0,VALID,99.8731,VALID,0,VALID,19.9019,VALID,268,VALID,0.648438,
2004-03-16, 00:59:00,VALID,918.697,VALID,0,VALID,99.8273,VALID,-0.0169808,VALID,19.9218,VALID,255,VALID,0.794017,
2004-03-16, 01:00:00,VALID,918.68,VALID,0,VALID,99.8286,VALID,-0.0339617,VALID,19.935,VALID,252,VALID,0.571615,
2004-03-16, 01:01:00,VALID,918.673,VALID,0,VALID,99.8337,VALID,0,VALID,19.938,VALID,235,VALID,0.748365,
2004-03-16, 01:02:00,VALID,918.662,VALID,0,VALID,99.8146,VALID,0,VALID,19.928,VALID,245,VALID,0.821715,
2004-03-16, 01:03:00,VALID,918.65,VALID,0,VALID,99.751,VALID,0.0339617,VALID,19.9086,VALID,257,VALID,0.641959,
2004-03-16, 01:04:00,VALID,918.658,VALID,0,VALID,99.6976,VALID,0,VALID,19.9121,VALID,261,VALID,0.686612,
2004-03-16, 01:05:00,VALID,918.642,VALID,0,VALID,99.6938,VALID,0,VALID,19.9245,VALID,279,VALID,0.8621,
2004-03-16, 01:06:00,VALID,918.636,VALID,0,VALID,99.7256,VALID,0.0169808,VALID,19.9474,VALID,252,VALID,0.654194,
2004-03-16, 01:07:00,VALID,918.635,VALID,0,VALID,99.7205,VALID,0,VALID,19.967,VALID,265,VALID,0.516006,
2004-03-16, 01:08:00,VALID,918.635,VALID,0,VALID,99.6684,VALID,0.0169808,VALID,19.9504,VALID,323,VALID,0.558685,
2004-03-16, 01:09:00,VALID,918.65,VALID,0,VALID,99.4268,VALID,-0.0169808,VALID,19.8791,VALID,343,VALID,0.589571,
2004-03-16, 01:10:00,VALID,918.647,VALID,0,VALID,99.2767,VALID,0.0169808,VALID,19.7924,VALID,346,VALID,0.71439,
2004-03-16, 01:11:00,VALID,918.643,VALID,0,VALID,99.1801,VALID,0.0169808,VALID,19.7082,VALID,360,VALID,0.889323,
2004-03-16, 01:12:00,VALID,918.638,VALID,0,VALID,99.2589,VALID,-0.0169808,VALID,19.6602,VALID,14,VALID,0.957889,
2004-03-16, 01:13:00,VALID,918.648,VALID,0,VALID,99.3912,VALID,0,VALID,19.6113,VALID,15,VALID,0.642045,
2004-03-16, 01:14:00,VALID,918.654,VALID,0,VALID,99.5107,VALID,-0.0169808,VALID,19.5855,VALID,16,VALID,0.59189,
2004-03-16, 01:15:01,VALID,918.638,VALID,0,VALID,99.5679,VALID,0,VALID,19.5634,VALID,27,VALID,0.674665,
2004-03-16, 01:16:00,VALID,918.641,VALID,0,VALID,99.7116,VALID,0,VALID,19.5438,VALID,18,VALID,0.596418,
2004-03-16, 01:17:00,VALID,918.616,VALID,0,VALID,99.7917,VALID,0.0169808,VALID,19.5338,VALID,15,VALID,0.654247,
2004-03-16, 01:18:00,VALID,918.589,VALID,0,VALID,99.8604,VALID,0.0169808,VALID,19.5336,VALID,11,VALID,0.62642,
2004-03-16, 01:19:00,VALID,918.564,VALID,0,VALID,99.8973,VALID,0.0169808,VALID,19.5204,VALID,18,VALID,0.981027,
2004-03-16, 01:20:00,VALID,918.525,VALID,0,VALID,99.9771,VALID,0.0169808,VALID,19.5274,VALID,18,VALID,0.972656,
2004-03-16, 01:21:00,VALID,918.503,VALID,0,VALID,99.9969,VALID,0,VALID,19.5279,VALID,14,VALID,0.618963,
2004-03-16, 01:22:01,VALID,918.492,VALID,0,VALID,100,VALID,0,VALID,19.5244,VALID,14,VALID,0.404797,
2004-03-16, 01:23:00,VALID,918.469,VALID,0,VALID,100,VALID,0,VALID,19.5214,VALID,14,VALID,0.636133,
2004-03-16, 01:24:00,VALID,918.443,VALID,0,VALID,100,VALID,0.0169808,VALID,19.5214,VALID,14,VALID,0.279204,
2004-03-16, 01:25:00,VALID,918.432,VALID,0,VALID,100,VALID,0.0169808,VALID,19.5082,VALID,14,VALID,0.572716,
2004-03-16, 01:26:00,VALID,918.425,VALID,0,VALID,100,VALID,0.0169808,VALID,19.5013,VALID,14,VALID,0.571987,
2004-03-16, 01:27:00,VALID,918.415,VALID,0,VALID,100,VALID,0,VALID,19.537,VALID,14,VALID,0.741257,
2004-03-16, 01:28:00,VALID,918.395,VALID,0,VALID,100,VALID,0,VALID,19.5408,VALID,14,VALID,0.73601,
2004-03-16, 01:29:00,VALID,918.404,VALID,0,VALID,100,VALID,0.0169808,VALID,19.5115,VALID,14,VALID,0.512576,
2004-03-16, 01:30:00,VALID,918.388,VALID,0,VALID,100,VALID,0.0169808,VALID,19.4432,VALID,13,VALID,0.421503,
2004-03-16, 01:31:01,VALID,918.367,VALID,0,VALID,100,VALID,0.0339617,VALID,19.4365,VALID,9,VALID,0.520712,
2004-03-16, 01:32:00,VALID,918.368,VALID,0,VALID,100,VALID,0,VALID,19.4404,VALID,9,VALID,0.184896,
2004-03-16, 01:33:00,VALID,918.361,VALID,0,VALID,100,VALID,0,VALID,19.4248,VALID,9,VALID,0.263077,
2004-03-16, 01:34:00,VALID,918.342,VALID,0,VALID,100,VALID,0,VALID,19.4218,VALID,9,VALID,0.186257,
2004-03-16, 01:35:00,VALID,918.324,VALID,0,VALID,100,VALID,0.0169808,VALID,19.4116,VALID,11,VALID,0.754808,
2004-03-16, 01:36:00,VALID,918.301,VALID,0,VALID,100,VALID,0,VALID,19.4111,VALID,11,VALID,0.702398,
2004-03-16, 01:37:00,VALID,918.281,VALID,0,VALID,100,VALID,0,VALID,19.4248,VALID,11,VALID,0.621505,
2004-03-16, 01:38:01,VALID,918.263,VALID,0,VALID,100,VALID,0.0339617,VALID,19.3982,VALID,11,VALID,0.201791,
2004-03-16, 01:39:00,VALID,918.241,VALID,0,VALID,100,VALID,0.0509425,VALID,19.3942,VALID,11,VALID,0.255682,
2004-03-16, 01:40:00,VALID,918.214,VALID,0,VALID,100,VALID,0,VALID,19.4211,VALID,11,VALID,0.372768,
2004-03-16, 01:41:00,VALID,918.19,VALID,0,VALID,100,VALID,0.0339617,VALID,19.4079,VALID,11,VALID,0.665334,
2004-03-16, 01:42:00,VALID,918.173,VALID,0,VALID,100,VALID,0,VALID,19.4047,VALID,19,VALID,0.588796,
2004-03-16, 01:43:00,VALID,918.163,VALID,0,VALID,100,VALID,0.0339617,VALID,19.3925,VALID,21,VALID,0.285742,
2004-03-16, 01:44:01,VALID,918.142,VALID,0,VALID,100,VALID,0,VALID,19.3627,VALID,21,VALID,0.345084,
2004-03-16, 01:45:00,VALID,918.129,VALID,0,VALID,100,VALID,0.0169808,VALID,19.3793,VALID,21,VALID,0.440358,
2004-03-16, 01:46:01,VALID,918.118,VALID,0,VALID,100,VALID,0.0169808,VALID,19.389,VALID,339,VALID,0.39117,
2004-03-16, 01:47:01,VALID,918.116,VALID,0,VALID,100,VALID,0.0169808,VALID,19.4049,VALID,320,VALID,0.159722,
2004-03-16, 01:48:01,VALID,918.101,VALID,0,VALID,100,VALID,0,VALID,19.4243,VALID,346,VALID,0.392383,
2004-03-16, 01:49:00,VALID,918.099,VALID,0,VALID,99.8754,VALID,0,VALID,19.3885,VALID,346,VALID,0.388445,
2004-03-16, 01:50:00,VALID,918.098,VALID,0,VALID,99.7141,VALID,0,VALID,19.3761,VALID,334,VALID,0.4246,
2004-03-16, 01:51:00,VALID,918.083,VALID,0,VALID,99.5883,VALID,0,VALID,19.3599,VALID,345,VALID,0.616493,
2004-03-16, 01:52:00,VALID,918.076,VALID,0,VALID,99.4598,VALID,0,VALID,19.3565,VALID,355,VALID,0.674055,
2004-03-16, 01:53:00,VALID,918.059,VALID,0,VALID,99.2971,VALID,0,VALID,19.3403,VALID,356,VALID,0.72247,
2004-03-16, 01:54:01,VALID,918.057,VALID,0,VALID,99.2704,VALID,0,VALID,19.35,VALID,335,VALID,0.311435,
2004-03-16, 01:55:00,VALID,918.048,VALID,0,VALID,99.1152,VALID,0.0339617,VALID,19.3309,VALID,211,VALID,0.320871,
2004-03-16, 01:56:00,VALID,918.025,VALID,0,VALID,99.0961,VALID,0.0169808,VALID,19.311,VALID,211,VALID,0.0546875,
2004-03-16, 01:57:01,VALID,918.005,VALID,0,VALID,99.0644,VALID,0.0169808,VALID,19.2921,VALID,211,VALID,0.169667,
2004-03-16, 01:58:01,VALID,917.983,VALID,0,VALID,99.0504,VALID,0,VALID,19.2596,VALID,211,VALID,0.0605469,
2004-03-16, 01:59:00,VALID,917.971,VALID,0,VALID,99.1025,VALID,0.0169808,VALID,19.2566,VALID,211,VALID,0.0695858,
2004-03-16, 02:00:00,VALID,917.96,VALID,0,VALID,99.2208,VALID,0,VALID,19.2405,VALID,226,VALID,0.53311,
2004-03-16, 02:01:00,VALID,917.937,VALID,0,VALID,99.4776,VALID,-0.0679233,VALID,19.271,VALID,237,VALID,0.322743,
2004-03-16, 02:02:01,VALID,917.916,VALID,0,VALID,99.5806,VALID,-0.0679233,VALID,19.2742,VALID,320,VALID,0.372337,
2004-03-16, 02:03:00,VALID,917.896,VALID,0,VALID,99.6595,VALID,-0.101885,VALID,19.2745,VALID,336,VALID,0.315589,
2004-03-16, 02:04:01,VALID,917.884,VALID,0,VALID,99.7714,VALID,-0.0509425,VALID,19.274,VALID,336,VALID,0.302431,
2004-03-16, 02:05:00,VALID,917.884,VALID,0,VALID,99.793,VALID,-0.0169808,VALID,19.2643,VALID,314,VALID,0.198742,
2004-03-16, 02:06:01,VALID,917.876,VALID,0,VALID,99.7917,VALID,-0.0849042,VALID,19.2516,VALID,308,VALID,0.0621189,
2004-03-16, 02:07:01,VALID,917.867,VALID,0,VALID,99.7866,VALID,-0.0679233,VALID,19.2323,VALID,306,VALID,0.0992187,
2004-03-16, 02:08:00,VALID,917.842,VALID,0,VALID,99.8553,VALID,-0.0849042,VALID,19.2131,VALID,290,VALID,0.287791,
2004-03-16, 02:09:00,VALID,917.834,VALID,0,VALID,99.8655,VALID,-0.0679233,VALID,19.1937,VALID,290,VALID,0.0883557,
2004-03-16, 02:10:01,VALID,917.811,VALID,0,VALID,99.9265,VALID,-0.0849042,VALID,19.1808,VALID,290,VALID,0,
2004-03-16, 02:11:00,VALID,917.788,VALID,0,VALID,99.9797,VALID,-0.0849042,VALID,19.187,VALID,290,VALID,0,
2004-03-16, 02:12:01,VALID,917.767,VALID,0,VALID,100,VALID,-0.0849042,VALID,19.2131,VALID,290,VALID,0,
2004-03-16, 02:13:00,VALID,917.736,VALID,0,VALID,100,VALID,-0.0849042,VALID,19.2191,VALID,282,VALID,0.211868,
2004-03-16, 02:14:01,VALID,917.705,VALID,0,VALID,100,VALID,-0.0509425,VALID,19.223,VALID,280,VALID,0,
2004-03-16, 02:15:00,VALID,917.682,VALID,0,VALID,100,VALID,-0.0679233,VALID,19.2258,VALID,280,VALID,0,
2004-03-16, 02:16:00,VALID,917.656,VALID,0,VALID,100,VALID,-0.101885,VALID,19.2417,VALID,280,VALID,0,
2004-03-16, 02:17:00,VALID,917.631,VALID,0,VALID,100,VALID,-0.101885,VALID,19.2519,VALID,280,VALID,0,
2004-03-16, 02:18:01,VALID,917.599,VALID,0,VALID,100,VALID,-0.0679233,VALID,19.2357,VALID,280,VALID,0,
2004-03-16, 02:19:00,VALID,917.587,VALID,0,VALID,100,VALID,-0.0849042,VALID,19.2228,VALID,280,VALID,0,
2004-03-16, 02:20:01,VALID,917.573,VALID,0,VALID,100,VALID,-0.101885,VALID,19.1587,VALID,280,VALID,0,
2004-03-16, 02:21:00,VALID,917.572,VALID,0,VALID,99.9753,VALID,-0.0849042,VALID,19.0519,VALID,280,VALID,0,
2004-03-16, 02:22:00,VALID,917.557,VALID,0,VALID,99.9616,VALID,-0.0849042,VALID,18.9836,VALID,280,VALID,0,
2004-03-16, 02:23:00,VALID,917.569,VALID,0,VALID,100,VALID,-0.101885,VALID,19.0037,VALID,280,VALID,0,
2004-03-16, 02:24:00,VALID,917.571,VALID,0,VALID,100,VALID,-0.101885,VALID,18.9903,VALID,280,VALID,0.0625,
2004-03-16, 02:25:00,VALID,917.575,VALID,0,VALID,100,VALID,-0.0849042,VALID,18.9836,VALID,280,VALID,0.0647866,
2004-03-16, 02:26:00,VALID,917.577,VALID,0,VALID,100,VALID,-0.0849042,VALID,19.0104,VALID,280,VALID,0.000868056,
2004-03-16, 02:27:00,VALID,917.58,VALID,0,VALID,100,VALID,-0.0849042,VALID,19.0169,VALID,280,VALID,0.00436047,
2004-03-16, 02:28:00,VALID,917.56,VALID,0,VALID,100,VALID,-0.101885,VALID,18.997,VALID,280,VALID,0,
2004-03-16, 02:29:00,VALID,917.554,VALID,0,VALID,100,VALID,-0.101885,VALID,18.9617,VALID,281,VALID,0.205915,
2004-03-16, 02:30:01,VALID,917.548,VALID,0,VALID,99.9524,VALID,-0.0679233,VALID,18.8582,VALID,281,VALID,0.0595703,
2004-03-16, 02:31:00,VALID,917.546,VALID,0,VALID,99.8553,VALID,0.0169808,VALID,18.7468,VALID,281,VALID,0.217797,
2004-03-16, 02:32:00,VALID,917.541,VALID,0,VALID,99.9354,VALID,0.0509425,VALID,18.7179,VALID,281,VALID,0,
2004-03-16, 02:33:00,VALID,917.55,VALID,0,VALID,99.9939,VALID,0.0169808,VALID,18.705,VALID,280,VALID,0.0423828,
2004-03-16, 02:34:01,VALID,917.548,VALID,0,VALID,100,VALID,0.0169808,VALID,18.7276,VALID,280,VALID,0.0777616,
2004-03-16, 02:35:01,VALID,917.548,VALID,0,VALID,100,VALID,0,VALID,18.7668,VALID,280,VALID,0.203325,
2004-03-16, 02:36:00,VALID,917.54,VALID,0,VALID,100,VALID,0,VALID,18.8215,VALID,280,VALID,0.0488281,
2004-03-16, 02:37:00,VALID,917.538,VALID,0,VALID,100,VALID,0,VALID,18.812,VALID,280,VALID,0,
2004-03-16, 02:38:00,VALID,917.541,VALID,0,VALID,99.9964,VALID,0,VALID,18.6857,VALID,280,VALID,0,
2004-03-16, 02:39:01,VALID,917.537,VALID,0,VALID,99.9893,VALID,0,VALID,18.6439,VALID,280,VALID,0.00427827,
2004-03-16, 02:40:01,VALID,917.518,VALID,0,VALID,100,VALID,0.0509425,VALID,18.637,VALID,266,VALID,0.346289,
2004-03-16, 02:41:00,VALID,917.496,VALID,0,VALID,100,VALID,0.0339617,VALID,18.7025,VALID,245,VALID,0.163681,
2004-03-16, 02:42:00,VALID,917.495,VALID,0,VALID,100,VALID,0.0169808,VALID,18.7857,VALID,245,VALID,0,
2004-03-16, 02:43:00,VALID,917.485,VALID,0,VALID,100,VALID,0.0169808,VALID,18.8535,VALID,245,VALID,0,
2004-03-16, 02:44:00,VALID,917.483,VALID,0,VALID,100,VALID,0.0169808,VALID,18.9059,VALID,245,VALID,0,
2004-03-16, 02:45:00,VALID,917.494,VALID,0,VALID,100,VALID,0.0169808,VALID,18.8796,VALID,245,VALID,0,
2004-03-16, 02:46:00,VALID,917.481,VALID,0,VALID,100,VALID,0.0169808,VALID,18.8342,VALID,245,VALID,0,
2004-03-16, 02:47:01,VALID,917.483,VALID,0,VALID,100,VALID,0,VALID,18.7122,VALID,245,VALID,0.139482,
2004-03-16, 02:48:01,VALID,917.476,VALID,0,VALID,99.9964,VALID,0.0169808,VALID,18.6472,VALID,245,VALID,0.0873047,
2004-03-16, 02:49:00,VALID,917.465,VALID,0,VALID,100,VALID,0.0339617,VALID,18.6278,VALID,245,VALID,0,
2004-03-16, 02:50:00,VALID,917.464,VALID,0,VALID,100,VALID,0.0169808,VALID,18.6342,VALID,245,VALID,0,
2004-03-16, 02:51:00,VALID,917.453,VALID,0,VALID,100,VALID,0.0339617,VALID,18.6797,VALID,245,VALID,0,
2004-03-16, 02:52:00,VALID,917.455,VALID,0,VALID,100,VALID,0.0509425,VALID,18.7182,VALID,245,VALID,0,
2004-03-16, 02:53:00,VALID,917.463,VALID,0,VALID,100,VALID,0.0339617,VALID,18.7216,VALID,245,VALID,0.138148,
2004-03-16, 02:54:00,VALID,917.459,VALID,0,VALID,100,VALID,-0.0169808,VALID,18.7316,VALID,245,VALID,0.247396,
2004-03-16, 02:55:00,VALID,917.462,VALID,0,VALID,100,VALID,0,VALID,18.7442,VALID,245,VALID,0.225,
2004-03-16, 02:56:01,VALID,917.441,VALID,0,VALID,100,VALID,-0.0169808,VALID,18.7348,VALID,245,VALID,0.222842,
2004-03-16, 02:57:00,VALID,917.449,VALID,0,VALID,99.9461,VALID,0,VALID,18.5962,VALID,245,VALID,0.0148026,
2004-03-16, 02:58:00,VALID,917.448,VALID,0,VALID,99.9514,VALID,0,VALID,18.5123,VALID,245,VALID,0,
2004-03-16, 02:59:00,VALID,917.448,VALID,0,VALID,100,VALID,0.0169808,VALID,18.554,VALID,245,VALID,0,
2004-03-16, 03:00:01,VALID,917.451,VALID,0,VALID,100,VALID,0,VALID,18.5861,VALID,245,VALID,0.225818,
2004-03-16, 03:01:00,VALID,917.434,VALID,0,VALID,100,VALID,0,VALID,18.5757,VALID,242,VALID,0.339453,
2004-03-16, 03:02:01,VALID,917.43,VALID,0,VALID,100,VALID,0,VALID,18.5605,VALID,174,VALID,0.257422,
2004-03-16, 03:03:00,VALID,917.419,VALID,0,VALID,100,VALID,0.0169808,VALID,18.5314,VALID,170,VALID,0.252083,
2004-03-16, 03:04:01,VALID,917.411,VALID,0,VALID,100,VALID,0.0169808,VALID,18.5277,VALID,170,VALID,0.0323401,
2004-03-16, 03:05:01,VALID,917.399,VALID,0,VALID,100,VALID,0.0169808,VALID,18.4959,VALID,170,VALID,0.0146723,
2004-03-16, 03:06:00,VALID,917.403,VALID,0,VALID,100,VALID,0.0339617,VALID,18.4532,VALID,170,VALID,0.154687,
2004-03-16, 03:07:01,VALID,917.391,VALID,0,VALID,100,VALID,0.0339617,VALID,18.4602,VALID,170,VALID,0,
2004-03-16, 03:08:01,VALID,917.383,VALID,0,VALID,100,VALID,0.0169808,VALID,18.4894,VALID,170,VALID,0.000400641,
2004-03-16, 03:09:01,VALID,917.359,VALID,0,VALID,100,VALID,0,VALID,18.4634,VALID,171,VALID,0.289063,
2004-03-16, 03:10:01,VALID,917.356,VALID,0,VALID,100,VALID,0,VALID,18.3991,VALID,171,VALID,0.0168679,
2004-03-16, 03:11:00,VALID,917.333,VALID,0,VALID,100,VALID,0,VALID,18.4507,VALID,171,VALID,0.0345204,
2004-03-16, 03:12:00,VALID,917.313,VALID,0,VALID,100,VALID,0.0339617,VALID,18.5665,VALID,171,VALID,0,
2004-03-16, 03:13:01,VALID,917.311,VALID,0,VALID,100,VALID,0.0339617,VALID,18.5508,VALID,171,VALID,0,
2004-03-16, 03:14:01,VALID,917.29,VALID,0,VALID,100,VALID,0.0339617,VALID,18.4994,VALID,171,VALID,0.171317,
2004-03-16, 03:15:01,VALID,917.29,VALID,0,VALID,100,VALID,0,VALID,18.512,VALID,182,VALID,0.5129,
2004-03-16, 03:16:01,VALID,917.282,VALID,0,VALID,100,VALID,-0.0509425,VALID,18.5522,VALID,342,VALID,0.577195,
2004-03-16, 03:17:01,VALID,917.269,VALID,0,VALID,100,VALID,-0.0849042,VALID,18.6518,VALID,342,VALID,0.433771,
2004-03-16, 03:18:01,VALID,917.253,VALID,0,VALID,100,VALID,-0.0679233,VALID,18.5974,VALID,342,VALID,0.553516,
2004-03-16, 03:19:01,VALID,917.238,VALID,0,VALID,100,VALID,-0.118866,VALID,18.5591,VALID,349,VALID,0.712536,
2004-03-16, 03:20:01,VALID,917.219,VALID,0,VALID,100,VALID,-0.101885,VALID,18.5978,VALID,352,VALID,0.673549,
2004-03-16, 03:21:01,VALID,917.215,VALID,0,VALID,100,VALID,-0.0849042,VALID,18.646,VALID,356,VALID,0.928779,
2004-03-16, 03:22:01,VALID,917.194,VALID,0,VALID,100,VALID,-0.0679233,VALID,18.733,VALID,2,VALID,1.18259,
2004-03-16, 03:23:01,VALID,917.173,VALID,0,VALID,100,VALID,-0.101885,VALID,18.7422,VALID,11,VALID,1.3051,
2004-03-16, 03:24:01,VALID,917.166,VALID,0,VALID,100,VALID,-0.101885,VALID,18.7205,VALID,5,VALID,1.3131,
2004-03-16, 03:25:01,VALID,917.157,VALID,0,VALID,100,VALID,-0.0849042,VALID,18.7111,VALID,357,VALID,0.823475,
2004-03-16, 03:26:01,VALID,917.152,VALID,0,VALID,100,VALID,-0.0849042,VALID,18.7009,VALID,351,VALID,0.549538,
2004-03-16, 03:27:01,VALID,917.142,VALID,0,VALID,100,VALID,-0.0849042,VALID,18.685,VALID,2,VALID,0.804129,
2004-03-16, 03:28:01,VALID,917.118,VALID,0,VALID,100,VALID,-0.0849042,VALID,18.6398,VALID,4,VALID,0.792151,
2004-03-16, 03:29:01,VALID,917.111,VALID,0,VALID,100,VALID,-0.0849042,VALID,18.6073,VALID,353,VALID,0.703311,
2004-03-16, 03:30:01,VALID,917.103,VALID,0,VALID,100,VALID,-0.0679233,VALID,18.623,VALID,345,VALID,0.882999,
2004-03-16, 03:31:01,VALID,917.086,VALID,0,VALID,100,VALID,0,VALID,18.6246,VALID,16,VALID,0.756944,
2004-03-16, 03:32:01,VALID,917.088,VALID,0,VALID,100,VALID,0.0339617,VALID,18.6149,VALID,14,VALID,0.378906,
2004-03-16, 03:33:01,VALID,917.089,VALID,0,VALID,100,VALID,-0.0169808,VALID,18.619,VALID,14,VALID,0.179497,
2004-03-16, 03:34:01,VALID,917.1,VALID,0,VALID,100,VALID,0,VALID,18.6151,VALID,11,VALID,0.0498512,
2004-03-16, 03:35:01,VALID,917.102,VALID,0,VALID,100,VALID,0,VALID,18.6179,VALID,328,VALID,0.121185,
2004-03-16, 03:36:01,VALID,917.099,VALID,0,VALID,100,VALID,0.0339617,VALID,18.6409,VALID,329,VALID,0.0179116,
2004-03-16, 03:37:01,VALID,917.106,VALID,0,VALID,100,VALID,-0.0169808,VALID,18.6573,VALID,329,VALID,0.0617188,
2004-03-16, 03:38:01,VALID,917.106,VALID,0,VALID,100,VALID,0.0169808,VALID,18.6633,VALID,329,VALID,0,
2004-03-16, 03:39:01,VALID,917.095,VALID,0,VALID,100,VALID,0,VALID,18.6705,VALID,329,VALID,0.151101,
2004-03-16, 03:40:01,VALID,917.089,VALID,0,VALID,100,VALID,0.0679233,VALID,18.6799,VALID,329,VALID,0.252539,
2004-03-16, 03:41:01,VALID,917.097,VALID,0,VALID,100,VALID,0.0169808,VALID,18.6702,VALID,328,VALID,0.34282,
2004-03-16, 03:42:01,VALID,917.109,VALID,0,VALID,100,VALID,0,VALID,18.6345,VALID,188,VALID,0.732851,
2004-03-16, 03:43:01,VALID,917.095,VALID,0,VALID,100,VALID,0,VALID,18.5928,VALID,153,VALID,0.688072,